Voltar ao catálogo

STARLINK-2610

AtivoComunicaçõesVLEO
NORAD 48376·PAYLOAD·🇺🇸 United States

Lançado May 4, 2021 de Cape Canaveral Space Force Station

Loading…

Próximas Passagens (próximas 24 horas)

TLE

AtualizadoSource: CelesTrak SupGP

Época: Sep 15, 2026, 01:59 UTC

1 48376C 21038Z   26258.08312500  .00256730  00000+0  88745-3 0  2589
2 48376  53.1484 151.8177 0004779 130.2013 237.3314 15.88636025    10

Acompanhe STARLINK-2610 em tempo real com AllMySat

Download on the App Store